When you browse on this site, cookies collect data to enhance your experience and personalize the content and advertising you see.
Visit our Privacy Policy to learn more. By continuing to use the site, you agree to this use of cookies and data.
  • In Switzerland
  • List of Countries
  • For 7 days
  • Water Temperature
  • Weather Map
  • Weather Widgets
  • user-avatar
    Login

    Hourly Weather Sharan

    Today, 5 April, Sunday

    Time Temperature Precipitation Wind Pressure Humidity
    00:00 +9°C° 0.1 mm 3 mps 587 mmHg 71%
    01:00 +8°C° 0.1 mm 3 mps 586 mmHg 75%
    02:00 +8°C° 0.1 mm 3 mps 586 mmHg 78%
    03:00 +7°C° 0.2 mm 3 mps 586 mmHg 80%
    04:00 +7°C° 0.2 mm 3 mps 586 mmHg 83%
    05:00 +6°C° 0 mm 2 mps 585 mmHg 84%
    06:00 +6°C° 0 mm 2 mps 586 mmHg 82%
    07:00 +7°C° 0 mm 2 mps 586 mmHg 80%
    08:00 +7°C° 0 mm 2 mps 587 mmHg 79%
    09:00 +8°C° 0 mm 2 mps 587 mmHg 72%
    10:00 +9°C° 0 mm 2 mps 588 mmHg 65%
    11:00 +10°C° 0 mm 3 mps 588 mmHg 58%
    12:00 +11°C° 0 mm 3 mps 588 mmHg 53%
    13:00 +13°C° 0 mm 2 mps 588 mmHg 48%
    14:00 +14°C° 0 mm 2 mps 588 mmHg 44%
    15:00 +14°C° 0 mm 2 mps 588 mmHg 41%
    16:00 +14°C° 0 mm 3 mps 588 mmHg 39%
    17:00 +14°C° 0 mm 3 mps 588 mmHg 36%
    18:00 +14°C° 0 mm 3 mps 589 mmHg 39%
    19:00 +13°C° 0 mm 3 mps 589 mmHg 43%
    20:00 +13°C° 0 mm 3 mps 589 mmHg 47%
    21:00 +13°C° 0 mm 2 mps 589 mmHg 49%
    22:00 +12°C° 0 mm 2 mps 589 mmHg 51%
    23:00 +12°C° 0 mm 2 mps 589 mmHg 54%

    Tomorrow, 6 April, Monday

    Time Temperature Precipitation Wind Pressure Humidity
    00:00 +10°C° 0 mm 2 mps 588 mmHg 55%
    01:00 +10°C° 0 mm 2 mps 588 mmHg 57%
    02:00 +9°C° 0 mm 2 mps 587 mmHg 59%
    03:00 +10°C° 0 mm 1 mps 587 mmHg 60%
    04:00 +9°C° 0 mm 1 mps 587 mmHg 60%
    05:00 +9°C° 0 mm 1 mps 586 mmHg 61%
    06:00 +8°C° 0.1 mm 2 mps 587 mmHg 61%
    07:00 +8°C° 0.1 mm 2 mps 587 mmHg 62%
    08:00 +8°C° 0.1 mm 2 mps 587 mmHg 62%
    09:00 +10°C° 0 mm 2 mps 588 mmHg 56%
    10:00 +12°C° 0 mm 2 mps 588 mmHg 49%
    11:00 +13°C° 0 mm 2 mps 589 mmHg 43%
    12:00 +13°C° 0 mm 4 mps 589 mmHg 39%
    13:00 +14°C° 0 mm 6 mps 588 mmHg 34%
    14:00 +15°C° 0 mm 8 mps 588 mmHg 30%
    15:00 +15°C° 0 mm 9 mps 588 mmHg 28%
    16:00 +16°C° 0 mm 10 mps 588 mmHg 27%
    17:00 +16°C° 0 mm 11 mps 587 mmHg 25%
    18:00 +13°C° 0 mm 9 mps 587 mmHg 28%
    19:00 +12°C° 0 mm 7 mps 587 mmHg 32%
    20:00 +10°C° 0 mm 5 mps 587 mmHg 35%
    21:00 +9°C° 0.1 mm 6 mps 586 mmHg 42%
    22:00 +8°C° 0.1 mm 6 mps 586 mmHg 49%
    23:00 +6°C° 0.1 mm 7 mps 585 mmHg 56%

    Day after tomorrow, 7 April, Tuesday

    Time Temperature Precipitation Wind Pressure Humidity
    00:00 +5°C° 0.1 mm 6 mps 585 mmHg 61%
    01:00 +5°C° 0.1 mm 4 mps 584 mmHg 66%
    02:00 +5°C° 0.1 mm 3 mps 584 mmHg 72%
    03:00 +5°C° 0 mm 2 mps 583 mmHg 72%
    04:00 +5°C° 0 mm 2 mps 583 mmHg 72%
    05:00 +6°C° 0 mm 1 mps 583 mmHg 72%
    06:00 +6°C° 0 mm 1 mps 583 mmHg 69%
    07:00 +7°C° 0 mm 1 mps 584 mmHg 66%
    08:00 +7°C° 0 mm 1 mps 584 mmHg 64%
    09:00 +7°C° 0 mm 3 mps 585 mmHg 58%
    10:00 +8°C° 0 mm 4 mps 585 mmHg 52%
    11:00 +9°C° 0 mm 5 mps 586 mmHg 46%
    12:00 +10°C° 0 mm 5 mps 586 mmHg 43%
    13:00 +10°C° 0 mm 5 mps 586 mmHg 41%
    14:00 +12°C° 0 mm 5 mps 586 mmHg 39%
    15:00 +12°C° 0 mm 5 mps 586 mmHg 37%
    16:00 +12°C° 0 mm 5 mps 586 mmHg 35%
    17:00 +13°C° 0 mm 5 mps 586 mmHg 34%
    18:00 +12°C° 0 mm 4 mps 586 mmHg 38%
    19:00 +11°C° 0 mm 3 mps 586 mmHg 42%
    20:00 +12°C° 0 mm 2 mps 585 mmHg 46%
    21:00 +10°C° 0 mm 2 mps 585 mmHg 50%
    22:00 +10°C° 0 mm 1 mps 585 mmHg 54%
    23:00 +10°C° 0 mm 1 mps 585 mmHg 58%

    8 April, Wednesday

    Time Temperature Precipitation Wind Pressure Humidity
    00:00 +9°C° 0 mm 1 mps 585 mmHg 59%
    01:00 +9°C° 0 mm 1 mps 585 mmHg 60%
    02:00 +9°C° 0 mm 1 mps 584 mmHg 62%
    03:00 +8°C° 0 mm 1 mps 584 mmHg 64%
    04:00 +8°C° 0 mm 1 mps 584 mmHg 67%
    05:00 +7°C° 0 mm 1 mps 584 mmHg 69%
    06:00 +8°C° 0 mm 1 mps 584 mmHg 66%
    07:00 +9°C° 0 mm 1 mps 585 mmHg 63%
    08:00 +9°C° 0 mm 1 mps 585 mmHg 60%
    09:00 +10°C° 0 mm 1 mps 586 mmHg 55%
    10:00 +12°C° 0 mm 2 mps 586 mmHg 49%
    11:00 +13°C° 0 mm 2 mps 586 mmHg 43%
    12:00 +13°C° 0 mm 3 mps 586 mmHg 40%
    13:00 +14°C° 0 mm 3 mps 586 mmHg 36%
    14:00 +15°C° 0 mm 4 mps 586 mmHg 33%
    15:00 +15°C° 0 mm 4 mps 586 mmHg 34%
    16:00 +15°C° 0 mm 5 mps 585 mmHg 34%
    17:00 +15°C° 0 mm 6 mps 585 mmHg 35%
    18:00 +14°C° 0 mm 6 mps 585 mmHg 39%
    19:00 +12°C° 0 mm 7 mps 585 mmHg 43%
    20:00 +12°C° 0 mm 8 mps 585 mmHg 47%
    21:00 +11°C° 0 mm 8 mps 585 mmHg 49%
    22:00 +10°C° 0 mm 8 mps 585 mmHg 52%
    23:00 +10°C° 0 mm 8 mps 584 mmHg 54%

    9 April, Thursday

    Time Temperature Precipitation Wind Pressure Humidity
    00:00 +9°C° 0 mm 7 mps 584 mmHg 57%
    01:00 +9°C° 0 mm 7 mps 583 mmHg 60%
    02:00 +9°C° 0 mm 6 mps 583 mmHg 63%
    03:00 +8°C° 0 mm 6 mps 582 mmHg 65%
    04:00 +7°C° 0 mm 6 mps 582 mmHg 68%
    05:00 +7°C° 0 mm 5 mps 582 mmHg 71%
    06:00 +7°C° 0 mm 5 mps 582 mmHg 69%
    07:00 +8°C° 0 mm 5 mps 583 mmHg 67%
    08:00 +8°C° 0 mm 5 mps 583 mmHg 66%
    09:00 +9°C° 0 mm 5 mps 584 mmHg 59%
    10:00 +10°C° 0 mm 5 mps 585 mmHg 52%
    11:00 +13°C° 0 mm 5 mps 586 mmHg 45%
    12:00 +14°C° 0 mm 5 mps 586 mmHg 37%
    13:00 +15°C° 0 mm 6 mps 586 mmHg 29%
    14:00 +16°C° 0 mm 6 mps 587 mmHg 21%
    15:00 +16°C° 0 mm 6 mps 587 mmHg 19%
    16:00 +15°C° 0 mm 7 mps 587 mmHg 17%
    17:00 +15°C° 0 mm 7 mps 586 mmHg 15%
    18:00 +14°C° 0 mm 6 mps 587 mmHg 19%
    19:00 +13°C° 0 mm 5 mps 587 mmHg 23%
    20:00 +12°C° 0 mm 4 mps 587 mmHg 27%
    21:00 +11°C° 0 mm 3 mps 587 mmHg 35%
    22:00 +10°C° 0 mm 3 mps 587 mmHg 42%
    23:00 +9°C° 0 mm 2 mps 587 mmHg 50%

    10 April, Friday

    Time Temperature Precipitation Wind Pressure Humidity
    00:00 +9°C° 0 mm 2 mps 586 mmHg 55%
    01:00 +8°C° 0 mm 2 mps 586 mmHg 61%
    02:00 +8°C° 0 mm 2 mps 586 mmHg 66%
    03:00 +7°C° 0 mm 2 mps 585 mmHg 68%
    04:00 +7°C° 0 mm 2 mps 585 mmHg 70%
    05:00 +6°C° 0 mm 2 mps 585 mmHg 71%
    06:00 +8°C° 0 mm 1 mps 585 mmHg 68%
    07:00 +8°C° 0 mm 1 mps 586 mmHg 64%
    08:00 +9°C° 0 mm 1 mps 587 mmHg 60%
    09:00 +10°C° 0 mm 1 mps 587 mmHg 51%
    10:00 +12°C° 0 mm 1 mps 588 mmHg 43%
    11:00 +13°C° 0 mm 1 mps 588 mmHg 34%
    12:00 +15°C° 0 mm 1 mps 589 mmHg 31%
    13:00 +16°C° 0 mm 2 mps 589 mmHg 28%
    14:00 +17°C° 0 mm 2 mps 589 mmHg 25%
    15:00 +18°C° 0 mm 2 mps 589 mmHg 25%
    16:00 +18°C° 0 mm 3 mps 589 mmHg 25%
    17:00 +19°C° 0 mm 3 mps 589 mmHg 25%
    18:00 +18°C° 0 mm 3 mps 589 mmHg 30%
    19:00 +17°C° 0 mm 3 mps 589 mmHg 35%
    20:00 +16°C° 0 mm 3 mps 590 mmHg 40%
    21:00 +14°C° 0 mm 3 mps 589 mmHg 45%
    22:00 +13°C° 0 mm 3 mps 589 mmHg 50%
    23:00 +13°C° 0 mm 3 mps 589 mmHg 55%
    Show more